FW0538 Weather Reports


Display with metric or nautical units.
time (UTC)temp
F
wind
direction
speed
MPH
gust
MPH
rain 1hr
in
rain 24hr
in
rain mn
in
humidity
%
barometer
mb
20260902130043 52 235 7.0 12.0 0.00 0.00 0.00 49 1010.3
20260902124543 52 252 8.0 16.0 0.00 0.00 0.00 49 1010.1
20260902123041 52 292 7.0 12.0 0.00 0.00 0.00 49 1010.0
20260902121540 52 255 8.0 17.0 0.00 0.00 0.00 48 1009.7
20260902120044 52 233 11.0 19.0 0.00 0.00 0.00 48 1009.7
20260902114637 52 287 12.0 19.0 0.00 0.00 0.00 49 1010.1
20260902113042 52 275 9.0 18.0 0.00 0.00 0.00 48 1009.8
20260902111539 52 282 7.0 15.0 0.00 0.00 0.00 48 1009.8
20260902110033 53 234 5.0 18.0 0.00 0.00 0.00 46 1010.0
20260902104539 52 271 4.0 16.0 0.00 0.00 0.00 46 1010.1
20260902103033 52 318 8.0 11.0 0.00 0.00 0.00 47 1010.0
20260902101535 52 307 4.0 10.0 0.00 0.00 0.00 47 1009.9
20260902100029 52 300 3.0 11.0 0.00 0.00 0.00 47 1009.7
20260902094531 51 325 5.0 10.0 0.00 0.00 0.00 47 1009.6
20260902093035 50 342 5.0 13.0 0.00 0.00 0.00 48 1009.9
20260902091526 48 26 2.0 7.0 0.00 0.00 0.00 49 1009.7
20260902090022 49 324 2.0 5.0 0.00 0.00 0.00 46 1009.7
20260902084519 51 255 1.0 4.0 0.00 0.00 0.00 44 1009.9
20260902083015 52 243 4.0 10.0 0.00 0.00 0.00 42 1009.9
20260902081512 54 230 7.0 17.0 0.00 0.00 0.00 39 1009.7
20260902080008 54 183 19.0 25.0 0.00 0.00 0.00 36 1009.0
20260902074505 55 179 19.0 29.0 0.00 0.00 0.00 35 1009.2
20260902073003 55 220 18.0 29.0 0.00 0.00 0.00 34 1009.0
20260902071600 55 243 18.0 26.0 0.00 0.00 0.00 35 1008.9
20260902070059 56 219 21.0 38.0 0.00 0.00 0.00 32 1008.4
20260902064608 55 229 19.0 35.0 0.00 0.00 0.00 40 1008.2
20260902063054 54 257 18.0 28.0 0.00 0.00 0.00 44 1008.0
20260902061556 54 281 16.0 25.0 0.00 0.00 0.00 44 1008.2
20260902060048 55 259 13.0 23.0 0.00 0.00 0.00 40 1008.2
20260902054546 56 236 11.0 24.0 0.00 0.00 0.00 38 1008.1
20260902053048 56 254 11.0 19.0 0.00 0.00 0.00 41 1008.0
20260902051543 57 251 11.0 20.0 0.00 0.00 0.00 35 1008.0
20260902050038 58 243 7.0 16.0 0.00 0.00 0.00 32 1008.0
20260902044536 58 261 7.0 16.0 0.00 0.00 0.00 30 1007.6
20260902043036 59 240 8.0 17.0 0.00 0.00 0.00 29 1007.4
20260902041533 59 328 11.0 16.0 0.00 0.00 0.00 30 1007.4
20260902040031 59 289 9.0 16.0 0.00 0.00 0.00 32 1007.2
20260902034530 59 245 13.0 20.0 0.00 0.00 0.00 32 1007.0
20260902033045 59 276 9.0 16.0 0.00 0.00 0.00 34 1006.8
20260902031525 60 273 1.0 11.0 0.00 0.00 0.00 32 1006.8
20260902030024 61 281 0.0 15.0 0.00 0.00 0.00 30 1006.6
20260902024523 61 136 0.0 4.0 0.00 0.00 0.00 31 1006.4
20260902023023 62 218 5.0 9.0 0.00 0.00 0.00 28 1006.2
20260902021526 63 148 4.0 9.0 0.00 0.00 0.00 28 1006.0
20260902020030 65 252 2.0 12.0 0.00 0.00 0.00 27 1005.9
20260902014527 67 240 3.0 15.0 0.00 0.00 0.00 25 1006.1
20260902013021 67 266 5.0 17.0 0.00 0.00 0.00 24 1005.7
20260902011520 68 272 7.0 18.0 0.00 0.00 0.00 24 1005.6
20260902010019 68 159 13.0 22.0 0.00 0.00 0.00 23 1005.7
20260902004520 68 260 9.0 20.0 0.00 0.00 0.00 24 1005.6
20260902003017 69 197 8.0 18.0 0.00 0.00 0.00 24 1005.6
20260902001516 70 184 16.0 24.0 0.00 0.00 0.00 23 1005.4
20260902000017 70 226 15.0 27.0 0.00 0.00 0.00 20 1005.1
20260901234514 71 229 16.0 30.0 0.00 0.00 0.00 19 1005.1
20260901233026 71 230 19.0 28.0 0.00 0.00 0.00 18 1004.9
20260901231512 72 221 16.0 27.0 0.00 0.00 0.00 19 1004.7
20260901230011 71 221 16.0 24.0 0.00 0.00 0.00 20 1004.9
20260901224529 71 266 15.0 27.0 0.00 0.00 0.00 23 1004.8
20260901223010 71 246 13.0 22.0 0.00 0.00 0.00 25 1005.0
20260901221508 72 257 11.0 19.0 0.00 0.00 0.00 24 1005.0
20260901220008 73 230 13.0 20.0 0.00 0.00 0.00 20 1004.6
20260901214506 73 236 12.0 19.0 0.00 0.00 0.00 22 1004.9
20260901213006 73 276 14.0 26.0 0.00 0.00 0.00 23 1004.9
20260901211511 74 263 12.0 23.0 0.00 0.00 0.00 22 1005.1
20260901210004 73 242 13.0 24.0 0.00 0.00 0.00 21 1005.0
20260901204503 73 235 16.0 22.0 0.00 0.00 0.00 21 1005.2
20260901203002 74 253 10.0 25.0 0.00 0.00 0.00 21 1005.2
20260901201600 73 257 9.0 17.0 0.00 0.00 0.00 25 1005.4
20260901200109 73 218 1.0 15.0 0.00 0.00 0.00 23 1005.4
20260901194604 73 229 11.0 17.0 0.00 0.00 0.00 23 1005.4
20260901193110 73 233 11.0 16.0 0.00 0.00 0.00 23 1005.6
20260901191558 73 254 13.0 19.0 0.00 0.00 0.00 23 1005.9
20260901190109 73 221 6.0 12.0 0.00 0.00 0.00 26 1005.9
20260901184555 74 102 1.0 10.0 0.00 0.00 0.00 29 1006.0
20260901183055 74 184 9.0 15.0 0.00 0.00 0.00 26 1006.0
20260901181559 73 156 8.0 13.0 0.00 0.00 0.00 26 1006.0
20260901180051 72 288 1.0 6.0 0.00 0.00 0.00 27 1006.2
20260901174550 71 120 1.0 10.0 0.00 0.00 0.00 32 1006.1
20260901173055 71 105 0.0 8.0 0.00 0.00 0.00 31 1006.1
20260901171558 70 98 1.0 8.0 0.00 0.00 0.00 32 1006.1
20260901170045 70 100 0.0 4.0 0.00 0.00 0.00 30 1006.0
20260901164551 69 164 2.0 5.0 0.00 0.00 0.00 30 1006.3
20260901163040 68 149 1.0 6.0 0.00 0.00 0.00 32 1006.2
20260901161543 66 104 1.0 7.0 0.00 0.00 0.00 34 1006.3
20260901160036 62 162 0.0 2.0 0.00 0.00 0.00 52 1006.3
20260901154535 65 103 0.0 3.0 0.00 0.00 0.00 38 1006.4
20260901153033 66 150 0.0 4.0 0.00 0.00 0.00 34 1006.7
20260901151539 65 143 0.0 5.0 0.00 0.00 0.00 33 1006.5
20260901150032 63 122 0.0 3.0 0.00 0.00 0.00 33 1006.5
20260901144528 61 112 0.0 5.0 0.00 0.00 0.00 39 1006.6
20260901143029 58 129 0.0 4.0 0.00 0.00 0.00 40 1006.5
20260901141528 59 283 0.0 0.0 0.00 0.00 0.00 37 1006.4
20260901140031 58 302 0.0 0.0 0.00 0.00 0.00 36 1006.5
20260901134533 58 302 0.0 3.0 0.00 0.00 0.00 36 1006.3
20260901133025 58 154 0.0 1.0 0.00 0.00 0.00 36 1006.1
20260901131519 59 151 0.0 0.0 0.00 0.00 0.00 35 1006.0